AirNav   Phillips 66 Aviation Fuel
 
 870 users online  

6MA8 Acushnet River Seaplane Base
New Bedford, Massachusetts, USA

GOING TO NEW BEDFORD?


FAA INFORMATION EFFECTIVE 14 SEPTEMBER 2017

Location

FAA Identifier: 6MA8
Lat/Long: 41-38-50.3740N / 070-55-03.1370W
41-38.839567N / 070-55.052283W
41.6473261 / -70.9175381
(estimated)
Elevation: 0 ft. / 0 m (estimated)
Variation: 16W (1990)
From city: 1 mile NE of NEW BEDFORD, MA
Time zone: UTC -4 (UTC -5 during Standard Time)
Zip code: 02746

Seaplane Base Operations

Seaplane Base use: Private use. Permission required prior to landing
Activation date: 02/1992
Control tower: no
ARTCC: BOSTON CENTER
FSS: BRIDGEPORT FLIGHT SERVICE STATION
Attendance: UNATNDD
Segmented circle: no

Seaplane Base Communications

WX ASOS at EWB (2.5 nm NW): PHONE 508-992-0195
WX ASOS at TAN (14 nm N): 132.675 (508-824-5005)
WX ASOS at UUU (18 nm SW): 132.075 (401-846-5910)
WX ASOS at PYM (18 nm NE): 135.625 (508-746-8003)

Nearby radio navigation aids

VOR radial/distance  VOR name  Freq  Var
MVYr333/20.4MARTHAS VINEYARD VOR/DME114.5015W
PVDr115/23.4PROVIDENCE VOR/DME115.6014W

 
NDB name  Hdg/Dist  Freq  Var  ID
TAUNTON178/14.422716WTAN - .- -.
MARSHFIELD218/29.136816WIMR .. -- .-.

Seaplane Base Services

Runway Information

Runway 2/20

Dimensions: 3500 x 200 ft. / 1067 x 61 m
Surface: water
RUNWAY 2  RUNWAY 20
Traffic pattern: leftleft

Runway 16/34

Dimensions: 3500 x 200 ft. / 1067 x 61 m
Surface: water
RUNWAY 16  RUNWAY 34
Traffic pattern: leftleft

Seaplane Base Ownership and Management from official FAA records

Ownership: Privately-owned
Owner: ISLAND SHUTTLE, INC.
123 R PURCHASE ST
MIDDLEBORO, MA 02346
Phone 508-947-9339
Manager: GID ALAN FISHER
123 R PURCHASE ST
MIDDLEBORO, MA 02346
Phone 508-947-9339

Instrument Procedures

There are no published instrument procedures at 6MA8.

Some nearby airports with instrument procedures:

KEWB - New Bedford Regional Airport (3 nm NW)
KTAN - Taunton Municipal Airport - King Field (14 nm N)
KFMH - Cape Cod Coast Guard Air Station (18 nm E)
KUUU - Newport State Airport (18 nm SW)
KPYM - Plymouth Municipal Airport (18 nm NE)
 
Loc | Ops | Rwys | IFR | FBO | Links
Com | Nav | Svcs | Stats | Notes


 
Area around 6MA8 (Acushnet River Seaplane Base)
 
Road maps at: MapQuest Bing Google
 
Aerial photo
No photo
 
Sectional chart

 
Airport distance calculator
Flying to Acushnet River Seaplane Base? Find the distance to fly.

From to 6MA8

Sunrise and sunset
Times for 24-Sep-2017
 Local
(UTC-4)
 Zulu
(UTC)
Morning civil twilight06:0610:06
Sunrise06:3410:34
Sunset18:3722:37
Evening civil twilight19:0523:05

Current date and time
Zulu (UTC)  25-Sep-2017 00:16:53
Local (UTC-4)  24-Sep-2017 20:16:53
 
METAR
KEWB 
3nm NW 
242353Z 00000KT 10SM CLR 20/18 A3003 RMK AO2 SLP168 T02000178 10294 20200 53007
KTAN 
15nm N 
242352Z AUTO 00000KT 9SM CLR 20/19 A3003 RMK AO2 SLP168 T02000189 10306 20200 53008
KUUU 
18nm W 
242353Z AUTO 00000KT 10SM CLR 19/17 A3004 RMK AO2 SLP170 T01940172 10272 20194 53006 $
KFMH 
18nm E 
242335Z AUTO 00000KT 10SM CLR 19/19 A3005 RMK AO2 FZRANO
KPYM 
18nm NE 
242352Z AUTO 00000KT 10SM 20/18 A3004 RMK AO2 SLP171 6//// T02000178 10289 20200 53006 PNO $
TAF
KFMH 
18nm E 
241728Z 2418/2518 05005KT P6SM SKC FM250100 VRB03KT 5SM BR BKN003 FM250300 00000KT 1/2SM FG OVC003 FM251300 06004KT 1SM BR BKN003 FM251500 08006KT 3SM BR SCT008 FM251600 08007KT P6SM SCT250
NOTAMs
Click for the latest NOTAMs
NOTAMs are issued by the DoD/FAA and will open in a separate window not controlled by AirNav.

 

 
 

Would you like to see your business listed on this page?

 If your business provides an interesting product or service to pilots, flight crews, aircraft, or users of the Acushnet River Seaplane Base, you should consider listing it here.  To start the listing process, click on the button below
 
Add a business
 

Other Pages about Acushnet River Seaplane Base

Update a link
 
Copyright © AirNav, LLC. All rights reserved. Privacy Policy  Contact